Location: Bosmont
(49.7318°N, 3.8587°E)
Time: 05:50:25
(UTC+00:00)

ATLAS 5 CENTAUR R/B - Pass Details

Date: 08 February 2023
Orbit: 460 x 1178 km, 63.3° (Epoch: 24 March)

Event Time Altitude Azimuth Distance (km) Brightness Sun altitude
Rises 20:12:18 0° 318° (NW) 2,973 5.8 -32.7°
Reaches altitude 10° 20:14:29 10° 324° (NW) 2,159 4.9 -33.0°
Enters shadow 20:16:38 26° 337° (NNW) 1,443 3.7 -33.3°
